STARLINK-32394, 61853

Orbit data source: Space-Track

STARLINK-32394, 61853 is a payload satellite owned by SpaceX/Seattle (US) in LEO that was launched on Thu, 07 Nov 2024 UTC via an FALCON 9 launch vehicle from the Air Force Eastern Test Range (AFETR). Payload-class satellites include a variety of spacecraft equipped with specific instruments for various scientific and technological missions. These include communications satellites like Starlink; space stations such as the ISS; scientific satellites like the Hubble; Earth observation satellites from companies like Planet Labs, Umbra, and HawkEye 360; GPS; miniature CubeSats for education and research; and military/defense satellites.

Loading next visibility...
Identifier
61853, 2024-202J
Orbit
LEO
Last TLE update
22 hours ago
Origin
Manufacturer
SpaceX/Seattle
Mission
Operational Commercial Communications
Bus & Motor
STARLINK V2M, Unknown motor
Mass
730 kg wet, ~700 kg dry
Launch date (UTC)
2024-11-07 (8 months ago)
Launch vehicle
FALCON 9
Launch site
Air Force Eastern Test Range (AFETR)
Object type
Payload
Rocket body
Debris
Shape & HBR
Box + 2 Pan, 29 m
Radar Cross Section
33.884 m², Large (>1 m²)

Expand to show TLE details & history

TLE from 22 hours ago
0 STARLINK-32394
1 61853U 24202J   25186.08963085  .00000336  00000-0  21754-4 0  9999
2 61853  43.0023 196.0237 0001639 270.9507  89.1157 15.27577670 37462
Epoch: 2025-07-05T02:09Z
TLE epoch observation values (Epoch: 2025-07-05T02:09:04.105Z)
Latitude
-0.00001°
Longitude
-119.57609°
Altitude
482.815 km
Speed
7.626 km/s
True Right ascension
13h 04m 05s
True Declination
0° 00' 00"
Sunlit
Object was in daylight at epoch
Visualization orbit readout
Latitude
22.65639°
Longitude
-98.35242°
Altitude
483.161 km
Speed
7.627 km/s
Apparent Right ascension
17h 50m 15s
Apparent Declination
-22° 01' 49"
Sunlit
Object is in daylight
Visualization observer readout
Local Sidereal Time
12:12:41
Azimuth
110.547° ESE
Elevation
-9.86°
Doppler factor
1
Orbital elements
Apogee altitude
486.126 km
Perigee altitude
483.876 km
Semi-major axis
6,863.138 km
Eccentricity
0.00016
Inclination
43.0023°
RAAN
196.0237°
Arg. of periapsis
270.9507°
True anomaly
Unknown
Mean anomaly
89.1157°
Eccentric anomaly
Unknown
Mean motion
3.81732 °/min
Orbital period
94.31 mins
BSTAR
0.000021754
Loading maneuver chart data...
Loading SW <> Apogee altitude chart data...
Loading historical data...
Loading historical data...
Loading historical data...
Loading historical data...
Loading historical data...
Loading historical data...
Loading historical data...

STARLINK-32394 Visibility forecast

Observer location: undefined°, undefined°

Span
Click to sort rows by Start time (UTC) header in descending order
Start Az.
Max El. time (UTC)
Max El. Az.
Max El.
End time (UTC)
End Az.
5 mins2025-07-06 03:27:11.717Z202.734° SW2025-07-06 03:30:11.717Z139.205° SSE24.641°2025-07-06 03:32:11.717Z97.309° ESE
6 mins2025-07-06 05:06:11.717Z257.844° W2025-07-06 05:08:11.717Z277.589° WNW42.392°2025-07-06 05:12:11.717Z71.033° E
6 mins2025-07-06 06:45:11.717Z289.079° WNW2025-07-06 06:48:11.717Z25.19° NE37.029°2025-07-06 06:51:11.717Z77.959° E
5 mins2025-07-06 08:25:11.717Z287.198° WNW2025-07-06 08:27:11.717Z121.048° SE44.26°2025-07-06 08:30:11.717Z110.61° ESE
4 mins2025-07-06 10:04:11.717Z245.236° WSW2025-07-06 10:05:11.717Z223.961° SW19.928°2025-07-06 10:08:11.717Z166.586° S
|